KQA661 HKMO-HUEN

Flight info

Callsign KQA661
Flight time N/A
Altitude 36000
Route GADLA UL434 OKSUM
Aircraft B738/M-SDE2E3FGHIRWXY/LB1

Departure

Time 2026-05-06 17:09
Airport Moi International Airport (HKMO)

Arrival

Time N/A
Airport Entebbe International Airport (HUEN)
Time Latitude Longitude Altitude Speed Heading
2026-05-06 16:54 -4.03266 39.60174 204 ft 0 kts 119°
2026-05-06 17:01 -4.03258 39.60160 208 ft 2 kts 118°
2026-05-06 17:01 -4.03250 39.60145 210 ft 2 kts 118°
2026-05-06 17:01 -4.03243 39.60130 212 ft 2 kts 116°
2026-05-06 17:02 -4.03236 39.60116 217 ft 2 kts 111°
2026-05-06 17:02 -4.03231 39.60100 212 ft 2 kts 78°
2026-05-06 17:02 -4.03237 39.60091 210 ft 0 kts 29°
2026-05-06 17:03 -4.03236 39.60091 210 ft 1 kts 29°
2026-05-06 17:03 -4.03220 39.60101 210 ft 5 kts 29°
2026-05-06 17:04 -4.03171 39.60128 204 ft 11 kts 29°
2026-05-06 17:04 -4.03089 39.60149 215 ft 13 kts 339°
2026-05-06 17:04 -4.03035 39.60079 210 ft 13 kts 299°
2026-05-06 17:04 -4.02993 39.60003 208 ft 12 kts 298°
2026-05-06 17:05 -4.02935 39.59947 206 ft 12 kts 354°
2026-05-06 17:05 -4.02884 39.59965 210 ft 12 kts 30°
2026-05-06 17:05 -4.02812 39.60005 210 ft 12 kts 29°
2026-05-06 17:05 -4.02695 39.60070 209 ft 16 kts 29°
2026-05-06 17:06 -4.02625 39.60109 210 ft 18 kts 30°
2026-05-06 17:06 -4.02507 39.60177 209 ft 21 kts 30°
2026-05-06 17:06 -4.02373 39.60252 215 ft 23 kts 28°
2026-05-06 17:06 -4.02226 39.60333 207 ft 25 kts 29°
2026-05-06 17:07 -4.02068 39.60422 207 ft 27 kts 29°
2026-05-06 17:07 -4.01907 39.60512 204 ft 26 kts 29°
2026-05-06 17:07 -4.01756 39.60596 206 ft 24 kts 29°
2026-05-06 17:07 -4.01615 39.60675 204 ft 23 kts 30°
2026-05-06 17:08 -4.01473 39.60738 210 ft 22 kts
2026-05-06 17:08 -4.01357 39.60699 209 ft 15 kts 314°
2026-05-06 17:08 -4.01341 39.60628 213 ft 5 kts 217°
2026-05-06 17:08 -4.01378 39.60607 206 ft 16 kts 209°
2026-05-06 17:09 -4.01721 39.60417 206 ft 96 kts 209°
2026-05-06 17:09 -4.02516 39.59970 220 ft 161 kts 207°
2026-05-06 17:09 -4.03551 39.59399 845 ft 171 kts 205°
2026-05-06 17:09 -4.04538 39.58824 1897 ft 159 kts 216°
2026-05-06 17:10 -4.05013 39.57793 2654 ft 179 kts 269°
2026-05-06 17:10 -4.04717 39.56551 3412 ft 187 kts 278°
2026-05-06 17:10 -4.04375 39.55218 3882 ft 213 kts 278°
2026-05-06 17:10 -4.03990 39.53681 4110 ft 241 kts 279°
2026-05-06 17:11 -4.03568 39.51985 4513 ft 258 kts 279°
2026-05-06 17:11 -4.03137 39.50227 5222 ft 260 kts 279°
2026-05-06 17:11 -4.02701 39.48421 5766 ft 277 kts 280°
2026-05-06 17:11 -4.02247 39.46516 6516 ft 284 kts 281°
2026-05-06 17:12 -4.01791 39.44584 7361 ft 286 kts 281°
2026-05-06 17:12 -4.01334 39.42635 8198 ft 288 kts 281°
2026-05-06 17:12 -4.00877 39.40675 9082 ft 290 kts 281°
2026-05-06 17:12 -4.00418 39.38707 9948 ft 291 kts 282°
2026-05-06 17:13 -3.99874 39.36719 10506 ft 306 kts 287°
2026-05-06 17:13 -3.99155 39.34617 10671 ft 331 kts 289°
2026-05-06 17:13 -3.98351 39.32405 10831 ft 353 kts 289°
2026-05-06 17:13 -3.97481 39.30030 10984 ft 373 kts 289°
2026-05-06 17:14 -3.96557 39.27496 11109 ft 391 kts 289°
2026-05-06 17:14 -3.95616 39.24894 11403 ft 402 kts 289°
2026-05-06 17:14 -3.94680 39.22285 11911 ft 404 kts 289°
2026-05-06 17:14 -3.93735 39.19636 12563 ft 402 kts 289°
2026-05-06 17:15 -3.92806 39.17024 13497 ft 395 kts 289°
2026-05-06 17:15 -3.91883 39.14424 14093 ft 397 kts 289°
2026-05-06 17:15 -3.90954 39.11803 14561 ft 400 kts 290°
2026-05-06 17:15 -3.90019 39.09165 15036 ft 404 kts 290°
2026-05-06 17:16 -3.89075 39.06503 15492 ft 407 kts 290°
2026-05-06 17:16 -3.88124 39.03818 15938 ft 411 kts 290°
2026-05-06 17:16 -3.87165 39.01115 16437 ft 413 kts 290°
2026-05-06 17:16 -3.86200 38.98395 16864 ft 416 kts 290°
2026-05-06 17:17 -3.85228 38.95653 17303 ft 419 kts 290°
2026-05-06 17:17 -3.84249 38.92895 17762 ft 421 kts 290°
2026-05-06 17:17 -3.83267 38.90125 18229 ft 423 kts 290°
2026-05-06 17:17 -3.82291 38.87376 18544 ft 427 kts 290°
2026-05-06 17:18 -3.81290 38.84557 18834 ft 431 kts 290°
2026-05-06 17:18 -3.80282 38.81715 19158 ft 434 kts 290°
2026-05-06 17:18 -3.79267 38.78855 19504 ft 437 kts 290°
2026-05-06 17:18 -3.78247 38.75982 19823 ft 440 kts 290°
2026-05-06 17:19 -3.77218 38.73083 20133 ft 443 kts 291°
2026-05-06 17:19 -3.76181 38.70162 20400 ft 447 kts 291°
2026-05-06 17:19 -3.75136 38.67220 20701 ft 450 kts 291°
2026-05-06 17:19 -3.74087 38.64264 21041 ft 451 kts 290°
2026-05-06 17:20 -3.73033 38.61288 21283 ft 456 kts 290°
2026-05-06 17:20 -3.72166 38.58218 21578 ft 459 kts 284°
2026-05-06 17:20 -3.71509 38.55085 21886 ft 461 kts 282°
2026-05-06 17:20 -3.70924 38.51915 22114 ft 465 kts 281°
2026-05-06 17:21 -3.70345 38.48716 22369 ft 468 kts 282°
2026-05-06 17:21 -3.69751 38.45544 22589 ft 471 kts 282°
2026-05-06 17:21 -3.69124 38.42327 22940 ft 471 kts 282°
2026-05-06 17:21 -3.68477 38.39102 23236 ft 472 kts 282°
2026-05-06 17:22 -3.67819 38.35879 23478 ft 474 kts 283°
2026-05-06 17:22 -3.67149 38.32628 23634 ft 478 kts 283°
2026-05-06 17:22 -3.66476 38.29363 23826 ft 480 kts 283°
2026-05-06 17:22 -3.65800 38.26082 24063 ft 480 kts 282°
2026-05-06 17:23 -3.65126 38.22799 24311 ft 481 kts 283°
2026-05-06 17:23 -3.64453 38.19522 24559 ft 481 kts 282°
2026-05-06 17:23 -3.63779 38.16239 24739 ft 483 kts 283°
2026-05-06 17:23 -3.63101 38.12937 24896 ft 485 kts 283°
2026-05-06 17:24 -3.62419 38.09615 25010 ft 488 kts 283°
2026-05-06 17:24 -3.61746 38.06336 25417 ft 483 kts 283°
2026-05-06 17:24 -3.61069 38.03039 25679 ft 483 kts 283°
2026-05-06 17:24 -3.60403 37.99730 25790 ft 486 kts 282°
2026-05-06 17:25 -3.59751 37.96395 25924 ft 489 kts 282°
2026-05-06 17:25 -3.59099 37.93054 26073 ft 490 kts 282°
2026-05-06 17:25 -3.58413 37.89707 26229 ft 491 kts 284°
2026-05-06 17:25 -3.57419 37.86449 26444 ft 489 kts 291°
2026-05-06 17:26 -3.56228 37.83256 26631 ft 490 kts 291°
2026-05-06 17:26 -3.55039 37.80061 26817 ft 490 kts 291°
2026-05-06 17:26 -3.53889 37.76839 26933 ft 492 kts 290°
2026-05-06 17:26 -3.52913 37.73538 27032 ft 495 kts 283°
2026-05-06 17:27 -3.52320 37.70143 27203 ft 496 kts 279°
2026-05-06 17:27 -3.51808 37.66724 27428 ft 495 kts 279°
2026-05-06 17:27 -3.51310 37.63313 27591 ft 495 kts 279°
2026-05-06 17:27 -3.50799 37.59897 27710 ft 497 kts 279°
2026-05-06 17:28 -3.50268 37.56474 27839 ft 498 kts 279°
2026-05-06 17:28 -3.49722 37.53050 27934 ft 499 kts 279°
2026-05-06 17:28 -3.49166 37.49623 28077 ft 499 kts 280°
2026-05-06 17:28 -3.48607 37.46204 28250 ft 498 kts 280°
2026-05-06 17:29 -3.48048 37.42789 28452 ft 496 kts 280°
2026-05-06 17:29 -3.47491 37.39384 28642 ft 495 kts 280°
2026-05-06 17:29 -3.46942 37.36020 28803 ft 495 kts 280°
2026-05-06 17:29 -3.46387 37.32612 28963 ft 495 kts 280°
2026-05-06 17:30 -3.45834 37.29219 29145 ft 494 kts 280°
2026-05-06 17:30 -3.45281 37.25823 29336 ft 493 kts 280°
2026-05-06 17:30 -3.44729 37.22434 29522 ft 493 kts 280°
2026-05-06 17:30 -3.44178 37.19054 29733 ft 492 kts 280°
2026-05-06 17:31 -3.43626 37.15678 29953 ft 491 kts 281°
2026-05-06 17:31 -3.42817 37.12368 30123 ft 489 kts 289°
2026-05-06 17:31 -3.41509 37.09226 30288 ft 488 kts 297°
2026-05-06 17:31 -3.39775 37.06315 30466 ft 487 kts 307°
2026-05-06 17:32 -3.37744 37.03605 30631 ft 486 kts 308°
2026-05-06 17:32 -3.35718 37.00958 30884 ft 484 kts 308°
2026-05-06 17:32 -3.33683 36.98298 31308 ft 478 kts 308°
2026-05-06 17:32 -3.31684 36.95663 31765 ft 473 kts 308°
2026-05-06 17:33 -3.29716 36.93047 32181 ft 469 kts 308°
2026-05-06 17:33 -3.27766 36.90441 32527 ft 467 kts 308°
2026-05-06 17:33 -3.25820 36.87832 32787 ft 467 kts 308°
2026-05-06 17:33 -3.23878 36.85225 33026 ft 468 kts 308°
2026-05-06 17:34 -3.21932 36.82612 33301 ft 468 kts 308°
2026-05-06 17:34 -3.19988 36.80002 33613 ft 467 kts 308°
2026-05-06 17:34 -3.18047 36.77398 33937 ft 466 kts 308°
2026-05-06 17:34 -3.16107 36.74795 34203 ft 466 kts 308°
2026-05-06 17:35 -3.14170 36.72197 34450 ft 466 kts 308°
2026-05-06 17:35 -3.12233 36.69600 34702 ft 465 kts 308°
2026-05-06 17:35 -3.10297 36.67004 34992 ft 464 kts 308°
2026-05-06 17:36 -3.06445 36.61838 35534 ft 462 kts 308°
2026-05-06 17:36 -3.04554 36.59303 35839 ft 460 kts 307°
2026-05-06 17:36 -3.02645 36.56744 36154 ft 457 kts 307°
2026-05-06 17:36 -3.00739 36.54189 36375 ft 457 kts 307°
2026-05-06 17:37 -2.98839 36.51633 36571 ft 458 kts 307°
2026-05-06 17:37 -2.96948 36.49076 36798 ft 457 kts 307°
2026-05-06 17:37 -2.95056 36.46513 37002 ft 458 kts 307°
2026-05-06 17:37 -2.93167 36.43954 37203 ft 457 kts 307°
2026-05-06 17:38 -2.91274 36.41390 37458 ft 456 kts 307°
2026-05-06 17:38 -2.89391 36.38842 37706 ft 455 kts 307°
2026-05-06 17:38 -2.87533 36.36327 37918 ft 455 kts 307°
2026-05-06 17:38 -2.85652 36.33783 38048 ft 456 kts 307°
2026-05-06 17:39 -2.81854 36.28646 38052 ft 462 kts 307°
2026-05-06 17:39 -2.78070 36.23389 38052 ft 469 kts 304°
2026-05-06 17:40 -2.74509 36.17892 38046 ft 471 kts 304°
2026-05-06 17:40 -2.70689 36.12575 38042 ft 471 kts 309°
2026-05-06 17:41 -2.66601 36.07458 38031 ft 471 kts 309°
2026-05-06 17:41 -2.62530 36.02325 38033 ft 471 kts 309°
2026-05-06 17:42 -2.58493 35.97168 38011 ft 470 kts 309°
2026-05-06 17:42 -2.54529 35.92014 38012 ft 470 kts 307°
2026-05-06 17:43 -2.50644 35.86769 38014 ft 469 kts 307°
2026-05-06 17:43 -2.46741 35.81530 38012 ft 469 kts 307°
2026-05-06 17:44 -2.42847 35.76306 38007 ft 468 kts 307°
2026-05-06 17:44 -2.38964 35.71094 38027 ft 467 kts 307°
2026-05-06 17:45 -2.35086 35.65888 38025 ft 466 kts 307°
2026-05-06 17:45 -2.31219 35.60699 38049 ft 465 kts 307°
2026-05-06 17:46 -2.27360 35.55519 38042 ft 464 kts 307°
2026-05-06 17:46 -2.23527 35.50375 38070 ft 464 kts 307°
2026-05-06 17:47 -2.19676 35.45209 38070 ft 463 kts 307°
2026-05-06 17:47 -2.15829 35.40048 38062 ft 462 kts 307°
2026-05-06 17:48 -2.11991 35.34898 38063 ft 461 kts 307°
2026-05-06 17:48 -2.08150 35.29746 38069 ft 461 kts 307°
2026-05-06 17:49 -2.04316 35.24603 38055 ft 461 kts 307°
2026-05-06 17:49 -2.00506 35.19494 38058 ft 461 kts 307°
2026-05-06 17:50 -1.96677 35.14357 38056 ft 461 kts 307°
2026-05-06 17:50 -1.92844 35.09218 38054 ft 461 kts 307°
2026-05-06 17:51 -1.89009 35.04073 38045 ft 461 kts 307°
2026-05-06 17:51 -1.85192 34.98956 38054 ft 461 kts 307°